DW1009 Weather Reports


Display with metric or nautical units.
time (UTC)temp
F
wind
direction
speed
MPH
gust
MPH
rain 1hr
in
rain 24hr
in
rain mn
in
humidity
%
barometer
mb
20260506051344 61 141 3.0 3.0 0.00 0.00 0.00 89 1014.6
20260506050345 61 249 3.0 3.0 0.00 0.00 0.00 88 1014.5
20260506043345 61 242 0.0 3.0 0.00 0.00 0.00 87 1014.1
20260506042344 61 234 2.0 3.0 0.00 0.00 0.00 86 1014.1
20260506033345 61 238 2.0 3.0 0.00 0.00 0.00 84 1013.2
20260506032344 61 268 1.0 4.0 0.00 0.00 0.00 84 1013.3
20260506031345 61 221 2.0 4.0 0.00 0.00 0.00 84 1013.3
20260506030344 61 223 3.0 3.0 0.00 0.00 0.00 83 1012.8
20260506025345 62 207 2.0 5.0 0.00 0.00 0.00 83 1012.7
20260506024344 62 223 5.0 5.0 0.00 0.00 0.00 83 1012.7
20260506023344 62 238 1.0 4.0 0.00 0.00 0.00 82 1012.6
20260506022344 63 223 2.0 4.0 0.00 0.00 0.00 82 1012.4
20260506021344 63 258 2.0 5.0 0.00 0.00 0.00 81 1012.4
20260506020344 63 254 3.0 5.0 0.00 0.00 0.00 81 1012.2
20260506014345 63 234 3.0 7.0 0.00 0.00 0.00 81 1012.2
20260506012344 63 283 3.0 5.0 0.00 0.00 0.00 81 1012.2
20260506011345 63 242 3.0 5.0 0.00 0.00 0.00 81 1012.4
20260506010344 63 156 2.0 6.0 0.00 0.00 0.00 80 1012.1
20260506005344 63 302 2.0 6.0 0.00 0.00 0.00 80 1012.2
20260506004344 64 220 3.0 5.0 0.00 0.00 0.00 78 1012.1
20260506003344 64 241 2.0 6.0 0.00 0.00 0.00 78 1012.2
20260506002345 64 238 5.0 8.0 0.00 0.00 0.00 77 1012.2
20260506000344 64 271 6.0 7.0 0.00 0.00 0.00 78 1012.3
20260505235344 63 263 4.0 8.0 0.00 0.00 0.00 79 1012.2
20260505234344 63 268 4.0 8.0 0.00 0.00 0.00 78 1012.2
20260505233344 64 217 5.0 7.0 0.00 0.00 0.00 77 1012.4
20260505231344 66 240 5.0 9.0 0.00 0.00 0.00 74 1012.4
20260505230344 66 275 3.0 9.0 0.00 0.00 0.00 73 1012.4
20260505225344 66 224 6.0 9.0 0.00 0.00 0.00 72 1012.5
20260505224344 65 236 3.0 8.0 0.00 0.00 0.00 72 1012.6
20260505222343 65 257 2.0 8.0 0.00 0.00 0.00 72 1012.6
20260505221344 65 265 3.0 8.0 0.00 0.00 0.00 71 1012.8
20260505215343 65 200 3.0 9.0 0.00 0.00 0.00 70 1012.8
20260505214343 65 226 5.0 9.0 0.00 0.00 0.00 71 1012.9
20260505213343 65 235 6.0 9.0 0.00 0.00 0.00 70 1013.0
20260505212344 64 274 2.0 7.0 0.00 0.00 0.00 72 1013.0
20260505211343 65 251 5.0 7.0 0.00 0.00 0.00 71 1013.1
20260505210343 65 252 2.0 8.0 0.00 0.00 0.00 71 1013.1
20260505205344 65 232 5.0 8.0 0.00 0.00 0.00 72 1013.1
20260505203343 65 207 4.0 11.0 0.00 0.00 0.00 71 1013.1
20260505201343 65 230 4.0 7.0 0.00 0.00 0.00 70 1013.1
20260505200413 65 277 4.0 9.0 0.00 0.00 0.00 70 1013.1
20260505195344 65 283 2.0 9.0 0.00 0.00 0.00 70 1013.1
20260505194344 65 216 6.0 9.0 0.00 0.00 0.00 73 1013.2
20260505193344 65 153 2.0 10.0 0.00 0.00 0.00 73 1013.2
20260505192343 64 188 4.0 9.0 0.00 0.00 0.00 73 1013.4
20260505190343 64 291 2.0 9.0 0.00 0.00 0.00 72 1013.4
20260505185343 64 287 4.0 8.0 0.00 0.00 0.00 73 1013.4
20260505184343 64 236 2.0 9.0 0.00 0.00 0.00 75 1013.4
20260505183413 63 252 5.0 9.0 0.00 0.00 0.00 75 1013.4
20260505182343 63 217 2.0 9.0 0.00 0.00 0.00 76 1013.4
20260505180343 63 340 1.0 9.0 0.00 0.00 0.00 77 1013.2
20260505175343 64 318 3.0 10.0 0.00 0.00 0.00 76 1013.1
20260505173413 63 25 3.0 9.0 0.00 0.00 0.00 79 1012.7
20260505172343 63 279 4.0 8.0 0.00 0.00 0.00 79 1012.6
20260505171343 62 174 0.0 8.0 0.00 0.00 0.00 81 1012.8
20260505170412 62 82 2.0 8.0 0.00 0.00 0.00 82 1012.6
20260505165413 63 273 2.0 9.0 0.00 0.00 0.00 81 1012.5
20260505164343 63 232 4.0 8.0 0.00 0.00 0.00 81 1012.6
20260505163343 62 339 8.0 9.0 0.00 0.00 0.00 83 1012.3
20260505162343 62 194 2.0 7.0 0.00 0.00 0.00 83 1012.2
20260505153343 60 257 2.0 6.0 0.00 0.00 0.00 85 1011.9
20260505152343 60 5 5.0 9.0 0.00 0.00 0.00 87 1011.9
20260505151413 60 288 1.0 7.0 0.00 0.00 0.00 88 1011.8
20260505150413 60 267 1.0 5.0 0.00 0.00 0.00 88 1011.7
20260505140343 58 325 0.0 5.0 0.00 0.00 0.00 90 1011.5
20260505124342 58 336 2.0 8.0 0.00 0.00 0.00 88 1011.6
20260505123342 58 328 1.0 6.0 0.00 0.00 0.00 89 1011.5
20260505121342 58 12 3.0 6.0 0.00 0.00 0.00 88 1011.5
20260505120343 58 239 1.0 7.0 0.00 0.00 0.00 87 1011.5
20260505115342 58 334 1.0 5.0 0.00 0.00 0.00 87 1011.4
20260505114343 58 336 3.0 4.0 0.00 0.00 0.00 86 1011.4
20260505113342 58 338 1.0 4.0 0.00 0.00 0.00 86 1011.3
20260505112342 59 149 1.0 4.0 0.00 0.00 0.00 85 1011.2
20260505111342 59 344 2.0 6.0 0.00 0.00 0.00 85 1011.4
20260505110342 59 26 1.0 4.0 0.00 0.00 0.00 86 1011.4
20260505101342 59 317 2.0 6.0 0.00 0.00 0.00 83 1011.6
20260505100412 59 5 2.0 6.0 0.00 0.00 0.00 82 1011.7
20260505095342 60 350 1.0 8.0 0.00 0.00 0.00 85 1011.6
20260505094342 59 328 2.0 10.0 0.00 0.00 0.00 84 1011.7
20260505093342 60 319 2.0 5.0 0.00 0.00 0.00 86 1011.9
20260505091342 60 321 0.0 6.0 0.00 0.00 0.00 86 1012.0
20260505090343 60 5 2.0 4.0 0.00 0.00 0.00 87 1012.1
20260505085342 60 327 1.0 4.0 0.00 0.00 0.00 87 1012.1
20260505084341 60 322 0.0 3.0 0.00 0.00 0.00 88 1012.1
20260505083342 60 292 2.0 3.0 0.00 0.00 0.00 88 1012.2
20260505082412 60 250 1.0 4.0 0.00 0.00 0.00 88 1012.2
20260505081342 60 329 2.0 4.0 0.00 0.00 0.00 89 1012.3
20260505080412 60 313 2.0 5.0 0.00 0.00 0.00 88 1012.3
20260505075412 60 271 1.0 6.0 0.00 0.00 0.00 88 1012.3
20260505074342 60 333 1.0 6.0 0.00 0.00 0.00 88 1012.5
20260505072341 60 326 1.0 5.0 0.00 0.00 0.00 88 1012.5
20260505071341 60 281 2.0 4.0 0.00 0.00 0.00 88 1012.6
20260505070412 60 328 2.0 3.0 0.00 0.00 0.00 89 1012.6
20260505065341 60 5 1.0 3.0 0.00 0.00 0.00 88 1012.6
20260505063411 60 283 2.0 3.0 0.00 0.00 0.00 88 1012.7
20260505062342 60 269 0.0 3.0 0.00 0.00 0.00 88 1012.7
20260505061412 60 342 1.0 5.0 0.00 0.00 0.00 88 1012.7
20260505060341 60 292 1.0 4.0 0.00 0.00 0.00 88 1012.6